Zurück zum Katalog

FENGYUN 1C DEB

AktivSSO
NORAD 31523·DEBRIS·🇨🇳 China

Gestartet May 10, 1999 von Taiyuan Satellite Launch Center

Loading…

Nächste Überflüge (nächste 24 Stunden)

TLE

AktuellSource: Space-Track

Epoche: Sep 14, 2026, 08:40 UTC

1 31523U 99025BXN 26257.36128650 -.00000014  00000-0  15165-4 0  9990
2 31523  98.7183 303.6537 0039121  46.2120  14.2859 14.13883034999023

Verfolge FENGYUN 1C DEB in Echtzeit mit AllMySat

Download on the App Store